Indianola, IA

2:57 AM CDT on September 01, 2015 (GMT -0500)
Indianola Town Square | | Change Station
CLOSE
Current Station
Personal Weather Station
Location: Indianola, IA
Elevation: 966 ft
Nearby Weather Stations

Elev 966 ft 41.36 °N, 93.57 °W | Updated 1 minute ago

Clear
Clear
70.6 °F
Feels Like 70.6 °F
N
0.0
Wind Variable Wind from SSE
Gusts 1.0 mph

Today
High -- | Low -- °F
--% Chance of Precip.
Yesterday
High -- | Low -- °F
Precip. -- in
6:40 AM 7:47 PM
Waning Gibbous, 90% visible
Pressure 29.92 in
Visibility 9.0 miles
Clouds Clear
Dew Point 69 °F
Humidity 96%
Rainfall 0.00 in
Snow Depth Not available.
UV 0 out of 12
Pollen 11.40 out of 12
Air Quality Not available.
Flu Activity Not available.
METAR KDSM 010754Z 18008KT 9SM CLR 23/19 A2995 RMK AO2 SLP132 T02280194
Pressure 29.92 in
Visibility 9.0 miles
Clouds Clear
Dew Point 69 °F
Humidity 96%
Rainfall 0.00 in
Snow Depth Not available.
UV 0 out of 12
Pollen 11.40 out of 12
Air Quality Not available.
Flu Activity Not available.
METAR KDSM 010754Z 18008KT 9SM CLR 23/19 A2995 RMK AO2 SLP132 T02280194

10-Day Weather Forecast

×

Almanac

Astronomy

Sep. 01, 2015 Rise Set
Actual Time
Civil Twilight
Nautical Twilight
Astronomical Twilight
Moon
Length of Visible Light
Length of Day
Tomorrow will be .
, % of the Moon is Illuminated

Today's Extremes

State Highs State Lows

Community

WunderPhotos

Upload Photos

1,851,488 photos uploaded!

WunderBlogs® & News

Nearby

Air Quality

  Air Quality AQ Index Pollutant
Not available.

Snow Depth

Station Depth Elevation

Earthquake Activity

City Distance Mag. Time & Date
Minimum magnitude displayed is 2.5.

Coastal Water Temperatures

Place Temperature

Stations

Nearby Weather Stations

Station Location Temp. Windchill Dew Point Humidity Wind Precip. Elev Updated Type